Time,TemperatureF,DewpointF,PressureIn,WindDirection,WindDirectionDegrees,WindSpeedMPH,WindSpeedGustMPH,Humidity,HourlyPrecipIn,Conditions,Clouds,dailyrainin,SoftwareType,DateUTC
2013-11-03 00:03:00,48.0,34.4,29.06,SSE,157,0.0,0.0,59,0.00,,SKC,0.00,VWS V14.00,2013-11-03 04:03:00,
2013-11-03 00:08:00,48.0,34.8,29.06,SSE,157,0.0,0.0,60,0.00,,SKC,0.00,VWS V14.00,2013-11-03 04:08:00,
2013-11-03 00:10:00,48.0,34.8,29.06,SSE,157,0.0,0.0,60,0.00,,SKC,0.00,VWS V14.00,2013-11-03 04:10:00,
2013-11-03 00:18:00,48.0,35.2,29.06,SSE,157,0.0,0.0,61,0.00,,SKC,0.00,VWS V14.00,2013-11-03 04:18:00,
2013-11-03 00:23:00,47.8,35.1,29.06,SSE,157,0.0,0.0,61,0.00,,SKC,0.00,VWS V14.00,2013-11-03 04:23:00,
2013-11-03 00:28:00,47.8,35.5,29.06,SSE,157,0.0,0.0,62,0.00,,SKC,0.00,VWS V14.00,2013-11-03 04:28:00,
2013-11-03 00:30:00,47.8,35.5,29.06,SSE,157,0.0,0.0,62,0.00,,SKC,0.00,VWS V14.00,2013-11-03 04:30:00,
2013-11-03 00:39:00,47.7,35.7,29.06,SSE,157,0.0,0.0,63,0.00,,SKC,0.00,VWS V14.00,2013-11-03 04:39:00,
2013-11-03 00:40:00,47.7,35.7,29.06,SSE,157,0.0,0.0,63,0.00,,SKC,0.00,VWS V14.00,2013-11-03 04:40:00,
2013-11-03 00:49:00,47.5,35.5,29.06,SSE,157,0.0,0.0,63,0.00,,SKC,0.00,VWS V14.00,2013-11-03 04:49:00,
2013-11-03 00:54:00,47.3,35.4,29.06,SSE,157,0.0,0.0,63,0.00,,SKC,0.00,VWS V14.00,2013-11-03 04:54:00,
2013-11-03 00:59:00,47.1,35.6,29.06,SSE,157,0.0,0.0,64,0.00,,SKC,0.00,VWS V14.00,2013-11-03 04:59:00,
2013-11-03 01:04:00,46.9,35.4,29.06,SSE,157,0.0,0.0,64,0.00,,SKC,0.00,VWS V14.00,2013-11-03 05:04:00,
2013-11-03 01:09:00,46.9,35.8,29.06,SSE,157,0.0,0.0,65,0.00,,SKC,0.00,VWS V14.00,2013-11-03 05:09:00,
2013-11-03 01:14:00,46.8,35.6,29.06,SSE,157,0.0,0.0,65,0.00,,SKC,0.00,VWS V14.00,2013-11-03 05:14:00,
2013-11-03 01:19:00,46.6,35.5,29.06,SSE,157,0.0,0.0,65,0.00,,SKC,0.00,VWS V14.00,2013-11-03 05:19:00,
2013-11-03 01:24:00,46.2,35.5,29.06,SSE,157,0.0,0.0,66,0.00,,SKC,0.00,VWS V14.00,2013-11-03 05:24:00,
2013-11-03 01:29:00,46.0,35.3,29.06,SSE,157,0.0,0.0,66,0.00,,SKC,0.00,VWS V14.00,2013-11-03 05:29:00,
2013-11-03 01:34:00,45.7,35.4,29.06,SSE,157,0.0,0.0,67,0.00,,SKC,0.00,VWS V14.00,2013-11-03 05:34:00,
2013-11-03 01:39:00,45.3,35.0,29.06,SSE,157,0.0,0.0,67,0.00,,SKC,0.00,VWS V14.00,2013-11-03 05:39:00,
2013-11-03 01:44:00,45.0,35.0,29.06,SSE,157,0.0,0.0,68,0.00,,SKC,0.00,VWS V14.00,2013-11-03 05:44:00,
2013-11-03 01:49:00,44.8,35.2,29.06,SSE,157,0.0,0.0,69,0.00,,SKC,0.00,VWS V14.00,2013-11-03 05:49:00,
2013-11-03 01:50:00,44.8,35.2,29.06,SSE,157,0.0,0.0,69,0.00,,SKC,0.00,VWS V14.00,2013-11-03 05:50:00,
2013-11-03 01:59:00,45.0,35.8,29.06,SSE,157,0.0,0.0,70,0.00,,SKC,0.00,VWS V14.00,2013-11-03 05:59:00,
2013-11-03 01:04:00,44.8,35.6,29.06,SSE,157,0.0,0.0,70,0.00,,SKC,0.00,VWS V14.00,2013-11-03 06:04:00,
2013-11-03 01:09:00,44.8,35.6,29.06,SSE,157,0.0,0.0,70,0.00,,SKC,0.00,VWS V14.00,2013-11-03 06:09:00,
2013-11-03 01:14:00,44.6,35.4,29.06,SSE,157,0.0,0.0,70,0.00,,SKC,0.00,VWS V14.00,2013-11-03 06:14:00,
2013-11-03 01:19:00,44.2,35.1,29.06,SSE,157,0.0,0.0,70,0.00,,SKC,0.00,VWS V14.00,2013-11-03 06:19:00,
2013-11-03 01:24:00,44.1,34.9,29.06,SSE,157,0.0,0.0,70,0.00,,SKC,0.00,VWS V14.00,2013-11-03 06:24:00,
2013-11-03 01:29:00,43.9,34.7,29.06,SSE,157,0.0,0.0,70,0.00,,SKC,0.00,VWS V14.00,2013-11-03 06:29:00,
2013-11-03 01:34:00,43.7,34.9,29.06,SSE,157,0.0,0.0,71,0.00,,SKC,0.00,VWS V14.00,2013-11-03 06:34:00,
2013-11-03 01:39:00,43.7,34.9,29.06,SSE,157,0.0,0.0,71,0.00,,SKC,0.00,VWS V14.00,2013-11-03 06:39:00,
2013-11-03 01:44:00,43.7,34.9,29.06,SSE,157,0.0,0.0,71,0.00,,SKC,0.00,VWS V14.00,2013-11-03 06:44:00,
2013-11-03 01:49:00,43.5,34.8,29.06,SSE,157,0.0,0.0,71,0.00,,SKC,0.00,VWS V14.00,2013-11-03 06:49:00,
2013-11-03 01:54:00,43.5,34.8,29.06,SSE,157,0.0,0.0,71,0.00,,SKC,0.00,VWS V14.00,2013-11-03 06:54:00,
2013-11-03 01:59:00,43.2,34.4,29.06,SSE,157,0.0,0.0,71,0.00,,SKC,0.00,VWS V14.00,2013-11-03 06:59:00,
2013-11-03 02:04:00,43.0,34.2,29.09,SSE,157,0.0,0.0,71,0.00,,SKC,0.00,VWS V14.00,2013-11-03 07:04:00,
2013-11-03 02:09:00,42.8,34.1,29.09,SSE,157,0.0,0.0,71,0.00,,SKC,0.00,VWS V14.00,2013-11-03 07:09:00,
2013-11-03 02:14:00,42.4,34.1,29.09,SSE,157,0.0,0.0,72,0.00,,SKC,0.00,VWS V14.00,2013-11-03 07:14:00,
2013-11-03 02:19:00,42.3,33.9,29.09,SSE,157,0.0,0.0,72,0.00,,SKC,0.00,VWS V14.00,2013-11-03 07:19:00,
2013-11-03 02:24:00,42.3,33.9,29.09,SSE,157,0.0,0.0,72,0.00,,SKC,0.00,VWS V14.00,2013-11-03 07:24:00,
2013-11-03 02:29:00,42.1,34.1,29.09,SSE,157,0.0,0.0,73,0.00,,SKC,0.00,VWS V14.00,2013-11-03 07:29:00,
2013-11-03 02:34:00,42.1,34.1,29.09,SSE,157,0.0,0.0,73,0.00,,SKC,0.00,VWS V14.00,2013-11-03 07:34:00,
2013-11-03 02:39:00,42.1,34.1,29.09,SSE,157,0.0,0.0,73,0.00,,SKC,0.00,VWS V14.00,2013-11-03 07:39:00,
2013-11-03 02:44:00,42.3,34.2,29.09,SSE,157,0.0,0.0,73,0.00,,SKC,0.00,VWS V14.00,2013-11-03 07:44:00,
2013-11-03 02:49:00,42.1,34.1,29.09,SSE,157,0.0,0.0,73,0.00,,SKC,0.00,VWS V14.00,2013-11-03 07:49:00,
2013-11-03 02:54:00,41.7,33.7,29.09,SSE,157,0.0,0.0,73,0.00,,SKC,0.00,VWS V14.00,2013-11-03 07:54:00,
2013-11-03 02:59:00,41.5,33.5,29.09,SSE,157,0.0,0.0,73,0.00,,SKC,0.00,VWS V14.00,2013-11-03 07:59:00,
2013-11-03 03:04:00,41.2,33.2,29.09,SSE,157,0.0,0.0,73,0.00,,SKC,0.00,VWS V14.00,2013-11-03 08:04:00,
2013-11-03 03:09:00,41.2,33.5,29.09,SSE,157,0.0,0.0,74,0.00,,SKC,0.00,VWS V14.00,2013-11-03 08:09:00,
2013-11-03 03:14:00,41.0,33.4,29.09,SSE,157,0.0,0.0,74,0.00,,SKC,0.00,VWS V14.00,2013-11-03 08:14:00,
2013-11-03 03:19:00,41.0,33.4,29.09,SSE,157,0.0,0.0,74,0.00,,SKC,0.00,VWS V14.00,2013-11-03 08:19:00,
2013-11-03 03:24:00,41.0,33.4,29.09,SSE,157,0.0,0.0,74,0.00,,SKC,0.00,VWS V14.00,2013-11-03 08:24:00,
2013-11-03 03:29:00,41.0,33.4,29.09,SSE,157,0.0,0.0,74,0.00,,SKC,0.00,VWS V14.00,2013-11-03 08:29:00,
2013-11-03 03:34:00,41.0,33.4,29.09,SSE,157,0.0,0.0,74,0.00,,SKC,0.00,VWS V14.00,2013-11-03 08:34:00,
2013-11-03 03:39:00,40.8,33.2,29.09,SSE,157,0.0,0.0,74,0.00,,SKC,0.00,VWS V14.00,2013-11-03 08:39:00,
2013-11-03 03:44:00,40.6,33.0,29.09,SSE,157,0.0,0.0,74,0.00,,SKC,0.00,VWS V14.00,2013-11-03 08:44:00,
2013-11-03 03:49:00,40.6,33.0,29.09,SSE,157,0.0,0.0,74,0.00,,SKC,0.00,VWS V14.00,2013-11-03 08:49:00,
2013-11-03 03:54:00,40.6,33.0,29.09,SSE,157,0.0,0.0,74,0.00,,SKC,0.00,VWS V14.00,2013-11-03 08:54:00,
2013-11-03 03:59:00,40.5,32.8,29.09,SSE,157,0.0,0.0,74,0.00,,SKC,0.00,VWS V14.00,2013-11-03 08:59:00,
2013-11-03 04:04:00,40.3,32.7,29.09,SSE,157,0.0,0.0,74,0.00,,SKC,0.00,VWS V14.00,2013-11-03 09:04:00,
2013-11-03 04:09:00,40.1,32.5,29.09,SSE,157,0.0,0.0,74,0.00,,SKC,0.00,VWS V14.00,2013-11-03 09:09:00,
2013-11-03 04:14:00,40.3,33.0,29.09,SSE,157,0.0,0.0,75,0.00,,SKC,0.00,VWS V14.00,2013-11-03 09:14:00,
2013-11-03 04:19:00,40.1,32.8,29.09,SSE,157,0.0,0.0,75,0.00,,SKC,0.00,VWS V14.00,2013-11-03 09:19:00,
2013-11-03 04:24:00,39.9,32.7,29.09,SSE,157,0.0,0.0,75,0.00,,SKC,0.00,VWS V14.00,2013-11-03 09:24:00,
2013-11-03 04:29:00,39.9,32.7,29.09,SSE,157,0.0,0.0,75,0.00,,SKC,0.00,VWS V14.00,2013-11-03 09:29:00,
2013-11-03 04:34:00,39.7,32.1,29.12,SSE,157,0.0,0.0,74,0.00,,SKC,0.00,VWS V14.00,2013-11-03 09:34:00,
2013-11-03 04:39:00,39.7,32.1,29.12,SSE,157,0.0,0.0,74,0.00,,SKC,0.00,VWS V14.00,2013-11-03 09:39:00,
2013-11-03 04:44:00,39.7,32.1,29.12,SSE,157,0.0,0.0,74,0.00,,SKC,0.00,VWS V14.00,2013-11-03 09:44:00,
2013-11-03 04:49:00,39.4,31.8,29.12,SSE,157,0.0,0.0,74,0.00,,SKC,0.00,VWS V14.00,2013-11-03 09:49:00,
2013-11-03 04:54:00,39.4,31.8,29.12,SSE,157,0.0,0.0,74,0.00,,SKC,0.00,VWS V14.00,2013-11-03 09:54:00,
2013-11-03 04:59:00,39.2,31.6,29.12,SSE,157,0.0,0.0,74,0.00,,SKC,0.00,VWS V14.00,2013-11-03 09:59:00,
2013-11-03 05:04:00,39.4,31.8,29.12,SSE,157,0.0,0.0,74,0.00,,SKC,0.00,VWS V14.00,2013-11-03 10:04:00,
2013-11-03 05:09:00,39.2,31.6,29.12,SSE,157,0.0,0.0,74,0.00,,SKC,0.00,VWS V14.00,2013-11-03 10:09:00,
2013-11-03 05:14:00,38.8,31.3,29.12,SSE,157,0.0,0.0,74,0.00,,SKC,0.00,VWS V14.00,2013-11-03 10:14:00,
2013-11-03 05:19:00,38.7,31.4,29.12,SSE,157,0.0,0.0,75,0.00,,SKC,0.00,VWS V14.00,2013-11-03 10:19:00,
2013-11-03 05:24:00,38.7,31.4,29.12,SSE,157,0.0,0.0,75,0.00,,SKC,0.00,VWS V14.00,2013-11-03 10:24:00,
2013-11-03 05:29:00,38.7,31.4,29.12,SSE,157,0.0,0.0,75,0.00,,SKC,0.00,VWS V14.00,2013-11-03 10:29:00,
2013-11-03 05:35:00,38.5,31.3,29.15,SSE,157,0.0,0.0,75,0.00,,SKC,0.00,VWS V14.00,2013-11-03 10:35:00,
2013-11-03 05:40:00,38.5,31.3,29.15,SSE,157,0.0,0.0,75,0.00,,SKC,0.00,VWS V14.00,2013-11-03 10:40:00,
2013-11-03 05:45:00,38.7,31.4,29.15,SSE,157,0.0,0.0,75,0.00,,SKC,0.00,VWS V14.00,2013-11-03 10:45:00,
2013-11-03 05:50:00,38.7,31.4,29.15,SSE,157,0.0,0.0,75,0.00,,SKC,0.00,VWS V14.00,2013-11-03 10:50:00,
2013-11-03 05:55:00,38.5,31.3,29.15,SSE,157,0.0,0.0,75,0.00,,SKC,0.00,VWS V14.00,2013-11-03 10:55:00,
2013-11-03 06:00:00,38.5,31.3,29.15,SSE,157,0.0,0.0,75,0.00,,SKC,0.00,VWS V14.00,2013-11-03 11:00:00,
2013-11-03 06:05:00,38.3,31.1,29.15,SSE,157,0.0,0.0,75,0.00,,SKC,0.00,VWS V14.00,2013-11-03 11:05:00,
2013-11-03 06:10:00,38.3,31.1,29.15,SSE,157,0.0,0.0,75,0.00,,SKC,0.00,VWS V14.00,2013-11-03 11:10:00,
2013-11-03 06:15:00,38.1,30.9,29.15,SSE,157,0.0,0.0,75,0.00,,SKC,0.00,VWS V14.00,2013-11-03 11:15:00,
2013-11-03 06:20:00,37.9,30.7,29.15,SSE,157,0.0,0.0,75,0.00,,SKC,0.00,VWS V14.00,2013-11-03 11:20:00,
2013-11-03 06:25:00,37.9,30.7,29.15,SSE,157,0.0,0.0,75,0.00,,SKC,0.00,VWS V14.00,2013-11-03 11:25:00,
2013-11-03 06:30:00,37.9,30.7,29.15,SSE,157,0.0,0.0,75,0.00,,SKC,0.00,VWS V14.00,2013-11-03 11:30:00,
2013-11-03 06:35:00,37.9,30.7,29.15,SSE,157,0.0,0.0,75,0.00,,SKC,0.00,VWS V14.00,2013-11-03 11:35:00,
2013-11-03 06:40:00,37.9,30.7,29.15,SSE,157,0.0,0.0,75,0.00,,SKC,0.00,VWS V14.00,2013-11-03 11:40:00,
2013-11-03 06:45:00,37.9,31.1,29.15,SSE,157,0.0,0.0,76,0.00,,SKC,0.00,VWS V14.00,2013-11-03 11:45:00,
2013-11-03 06:50:00,37.8,30.9,29.15,SSE,157,0.0,0.0,76,0.00,,SKC,0.00,VWS V14.00,2013-11-03 11:50:00,
2013-11-03 06:55:00,37.6,30.7,29.15,SSE,157,0.0,0.0,76,0.00,,SKC,0.00,VWS V14.00,2013-11-03 11:55:00,
2013-11-03 07:00:00,37.6,30.7,29.15,SSE,157,0.0,0.0,76,0.00,,SKC,0.00,VWS V14.00,2013-11-03 12:00:00,
2013-11-03 07:05:00,37.4,30.5,29.18,SSE,157,0.0,0.0,76,0.00,,SKC,0.00,VWS V14.00,2013-11-03 12:05:00,
2013-11-03 07:10:00,37.6,30.7,29.18,SSE,157,0.0,0.0,76,0.00,,SKC,0.00,VWS V14.00,2013-11-03 12:10:00,
2013-11-03 07:15:00,37.6,30.7,29.18,SSE,157,0.0,0.0,76,0.00,,SKC,0.00,VWS V14.00,2013-11-03 12:15:00,
2013-11-03 07:20:00,37.4,30.5,29.18,SSE,157,0.0,0.0,76,0.00,,SKC,0.00,VWS V14.00,2013-11-03 12:20:00,
2013-11-03 07:25:00,37.4,30.5,29.18,SSE,157,0.0,0.0,76,0.00,,SKC,0.00,VWS V14.00,2013-11-03 12:25:00,
2013-11-03 07:30:00,37.2,30.4,29.18,SSE,157,0.0,0.0,76,0.00,,SKC,0.00,VWS V14.00,2013-11-03 12:30:00,
2013-11-03 07:35:00,37.2,30.4,29.18,SSE,157,0.0,0.0,76,0.00,,SKC,0.00,VWS V14.00,2013-11-03 12:35:00,
2013-11-03 07:40:00,37.4,30.5,29.18,SSE,157,0.0,0.0,76,0.00,,SKC,0.00,VWS V14.00,2013-11-03 12:40:00,
2013-11-03 07:45:00,37.4,30.5,29.18,SSE,157,0.0,0.0,76,0.00,,SKC,0.00,VWS V14.00,2013-11-03 12:45:00,
2013-11-03 07:50:00,37.6,31.0,29.18,SSE,157,0.0,0.0,77,0.00,,SKC,0.00,VWS V14.00,2013-11-03 12:50:00,
2013-11-03 07:55:00,37.8,31.2,29.18,SSE,157,0.0,0.0,77,0.00,,SKC,0.00,VWS V14.00,2013-11-03 12:55:00,
2013-11-03 08:00:00,38.1,31.6,29.18,SSE,157,0.0,0.0,77,0.00,,SKC,0.00,VWS V14.00,2013-11-03 13:00:00,
2013-11-03 08:05:00,38.3,31.7,29.18,SSE,157,0.0,0.0,77,0.00,,SKC,0.00,VWS V14.00,2013-11-03 13:05:00,
2013-11-03 08:10:00,38.7,32.1,29.18,SSE,157,0.0,0.0,77,0.00,,SKC,0.00,VWS V14.00,2013-11-03 13:10:00,
2013-11-03 08:15:00,38.8,32.3,29.18,SSE,157,0.0,0.0,77,0.00,,SKC,0.00,VWS V14.00,2013-11-03 13:15:00,
2013-11-03 08:20:00,39.0,32.4,29.21,SSE,157,0.0,0.0,77,0.00,,SKC,0.00,VWS V14.00,2013-11-03 13:20:00,
2013-11-03 08:25:00,39.4,32.8,29.21,SSE,157,0.0,0.0,77,0.00,,SKC,0.00,VWS V14.00,2013-11-03 13:25:00,
2013-11-03 08:30:00,39.6,33.0,29.21,SSE,157,0.0,0.0,77,0.00,,SKC,0.00,VWS V14.00,2013-11-03 13:30:00,
2013-11-03 08:35:00,39.9,33.3,29.21,SSE,157,0.0,0.0,77,0.00,,SKC,0.00,VWS V14.00,2013-11-03 13:35:00,
2013-11-03 08:40:00,40.3,33.7,29.21,SSE,157,0.0,0.0,77,0.00,,SKC,0.00,VWS V14.00,2013-11-03 13:40:00,
2013-11-03 08:45:00,40.8,34.5,29.21,SSE,157,0.0,0.0,78,0.00,,SKC,0.00,VWS V14.00,2013-11-03 13:45:00,
2013-11-03 08:50:00,41.5,35.5,29.21,SSE,157,0.0,0.0,79,0.00,,SKC,0.00,VWS V14.00,2013-11-03 13:50:00,
2013-11-03 08:55:00,42.3,36.5,29.21,SSE,157,0.0,0.0,80,0.00,,SKC,0.00,VWS V14.00,2013-11-03 13:55:00,
2013-11-03 09:00:00,42.6,37.2,29.21,NNE,21,6.4,6.4,81,0.00,,SKC,0.00,VWS V14.00,2013-11-03 14:00:00,
2013-11-03 09:05:00,43.3,37.9,29.23,NE,36,0.0,5.4,81,0.00,,SKC,0.00,VWS V14.00,2013-11-03 14:05:00,
2013-11-03 09:10:00,43.7,38.3,29.23,NE,36,0.0,5.4,81,0.00,,SKC,0.00,VWS V14.00,2013-11-03 14:10:00,
2013-11-03 09:15:00,44.2,38.8,29.23,NE,36,0.0,0.0,81,0.00,,SKC,0.00,VWS V14.00,2013-11-03 14:15:00,
2013-11-03 09:20:00,44.8,39.3,29.23,NE,36,0.0,0.0,81,0.00,,SKC,0.00,VWS V14.00,2013-11-03 14:20:00,
2013-11-03 09:25:00,45.3,39.8,29.23,NE,41,0.0,0.0,81,0.00,,SKC,0.00,VWS V14.00,2013-11-03 14:25:00,
2013-11-03 09:30:00,45.7,39.9,29.23,NNE,29,0.0,0.0,80,0.00,,SKC,0.00,VWS V14.00,2013-11-03 14:30:00,
2013-11-03 09:35:00,46.2,40.1,29.23,NE,36,0.0,0.0,79,0.00,,SKC,0.00,VWS V14.00,2013-11-03 14:35:00,
2013-11-03 09:40:00,46.6,39.8,29.23,NNE,16,0.0,0.0,77,0.00,,SKC,0.00,VWS V14.00,2013-11-03 14:40:00,
2013-11-03 09:45:00,46.9,39.4,29.23,NNE,26,0.0,4.0,75,0.00,,SKC,0.00,VWS V14.00,2013-11-03 14:45:00,
2013-11-03 09:50:00,47.3,39.5,29.23,West,269,0.0,0.0,74,0.00,,SKC,0.00,VWS V14.00,2013-11-03 14:50:00,
2013-11-03 09:55:00,47.7,39.4,29.23,ENE,64,0.0,0.0,73,0.00,,SKC,0.00,VWS V14.00,2013-11-03 14:55:00,
2013-11-03 10:00:00,48.2,39.2,29.23,NNE,14,0.0,2.2,71,0.00,,SKC,0.00,VWS V14.00,2013-11-03 15:00:00,
2013-11-03 10:05:00,48.6,38.9,29.23,NE,40,0.0,4.9,69,0.00,,SKC,0.00,VWS V14.00,2013-11-03 15:05:00,
2013-11-03 10:10:00,48.7,38.3,29.23,NNE,29,0.0,0.0,67,0.00,,SKC,0.00,VWS V14.00,2013-11-03 15:10:00,
2013-11-03 10:15:00,49.1,38.2,29.23,NE,42,2.7,2.7,66,0.00,,SKC,0.00,VWS V14.00,2013-11-03 15:15:00,
2013-11-03 10:20:00,49.5,38.2,29.23,NW,316,3.8,3.8,65,0.00,,SKC,0.00,VWS V14.00,2013-11-03 15:20:00,
2013-11-03 10:25:00,49.6,37.2,29.23,NNW,332,0.0,4.9,62,0.00,,SKC,0.00,VWS V14.00,2013-11-03 15:25:00,
2013-11-03 10:30:00,49.8,36.9,29.23,North,353,0.0,0.0,61,0.00,,SKC,0.00,VWS V14.00,2013-11-03 15:30:00,
2013-11-03 10:35:00,50.2,36.4,29.23,NNW,343,0.0,4.0,59,0.00,,SKC,0.00,VWS V14.00,2013-11-03 15:35:00,
2013-11-03 10:40:00,50.4,36.2,29.23,SW,232,0.0,0.0,58,0.00,,SKC,0.00,VWS V14.00,2013-11-03 15:40:00,
2013-11-03 10:45:00,50.9,37.1,29.23,NNW,340,0.0,0.0,59,0.00,,SKC,0.00,VWS V14.00,2013-11-03 15:45:00,
2013-11-03 10:50:00,51.4,36.3,29.23,West,272,0.0,0.0,56,0.00,,SKC,0.00,VWS V14.00,2013-11-03 15:50:00,
2013-11-03 10:55:00,51.6,34.1,29.23,NE,40,5.9,6.3,51,0.00,,SKC,0.00,VWS V14.00,2013-11-03 15:55:00,
2013-11-03 11:00:00,52.2,34.1,29.23,NNE,23,3.2,4.0,50,0.00,,SKC,0.00,VWS V14.00,2013-11-03 16:00:00,
2013-11-03 11:05:00,52.5,33.9,29.23,West,263,0.0,5.8,49,0.00,,SKC,0.00,VWS V14.00,2013-11-03 16:05:00,
2013-11-03 11:10:00,53.2,34.6,29.23,NNE,27,0.0,2.7,49,0.00,,SKC,0.00,VWS V14.00,2013-11-03 16:10:00,
2013-11-03 11:15:00,53.6,33.3,29.23,NNE,18,5.9,5.9,46,0.00,,SKC,0.00,VWS V14.00,2013-11-03 16:15:00,
2013-11-03 11:20:00,54.0,33.7,29.23,East,80,4.3,4.3,46,0.00,,SKC,0.00,VWS V14.00,2013-11-03 16:20:00,
2013-11-03 11:25:00,54.1,32.2,29.23,NE,38,10.5,10.5,43,0.00,,SKC,0.00,VWS V14.00,2013-11-03 16:25:00,
2013-11-03 11:31:00,54.0,32.6,29.23,NNE,23,0.0,3.1,44,0.00,,SKC,0.00,VWS V14.00,2013-11-03 16:31:00,
2013-11-03 11:36:00,53.4,32.6,29.23,NNE,22,4.8,5.8,45,0.00,,SKC,0.00,VWS V14.00,2013-11-03 16:36:00,
2013-11-03 11:41:00,53.8,32.4,29.23,NNE,33,3.2,3.2,44,0.00,,SKC,0.00,VWS V14.00,2013-11-03 16:41:00,
2013-11-03 11:46:00,54.5,32.5,29.23,WNW,297,2.7,4.9,43,0.00,,SKC,0.00,VWS V14.00,2013-11-03 16:46:00,
2013-11-03 11:51:00,55.2,34.3,29.23,NNE,21,0.0,2.2,45,0.00,,SKC,0.00,VWS V14.00,2013-11-03 16:51:00,
2013-11-03 11:56:00,55.9,34.4,29.23,NW,313,2.7,3.6,44,0.00,,SKC,0.00,VWS V14.00,2013-11-03 16:56:00,
2013-11-03 12:01:00,56.1,33.4,29.23,NE,50,0.0,0.0,42,0.00,,SKC,0.00,VWS V14.00,2013-11-03 17:01:00,
2013-11-03 12:06:00,56.5,33.7,29.23,NE,50,0.0,3.6,42,0.00,,SKC,0.00,VWS V14.00,2013-11-03 17:06:00,
2013-11-03 12:11:00,56.8,33.4,29.23,NNE,25,0.0,0.0,41,0.00,,SKC,0.00,VWS V14.00,2013-11-03 17:11:00,
2013-11-03 12:16:00,57.2,32.5,29.23,West,273,2.7,6.3,39,0.00,,SKC,0.00,VWS V14.00,2013-11-03 17:16:00,
2013-11-03 12:21:00,57.4,32.7,29.23,WSW,256,0.0,0.0,39,0.00,,SKC,0.00,VWS V14.00,2013-11-03 17:21:00,
2013-11-03 12:26:00,57.7,33.0,29.23,NNW,335,0.0,3.6,39,0.00,,SKC,0.00,VWS V14.00,2013-11-03 17:26:00,
2013-11-03 12:31:00,58.3,34.1,29.23,SSE,159,3.2,3.6,40,0.00,,SKC,0.00,VWS V14.00,2013-11-03 17:31:00,
2013-11-03 12:36:00,58.6,33.1,29.23,NNE,29,6.4,6.4,38,0.00,,SKC,0.00,VWS V14.00,2013-11-03 17:36:00,
2013-11-03 12:41:00,58.8,32.6,29.23,NNE,18,0.0,0.0,37,0.00,,SKC,0.00,VWS V14.00,2013-11-03 17:41:00,
2013-11-03 12:46:00,58.8,32.6,29.23,North,9,0.0,5.8,37,0.00,,SKC,0.00,VWS V14.00,2013-11-03 17:46:00,
2013-11-03 12:51:00,59.2,33.6,29.23,SW,233,0.0,0.0,38,0.00,,SKC,0.00,VWS V14.00,2013-11-03 17:51:00,
2013-11-03 12:56:00,59.5,33.9,29.23,NNE,33,3.8,3.8,38,0.00,,SKC,0.00,VWS V14.00,2013-11-03 17:56:00,
2013-11-03 13:01:00,59.5,33.3,29.23,NE,37,0.0,0.0,37,0.00,,SKC,0.00,VWS V14.00,2013-11-03 18:01:00,
2013-11-03 13:06:00,59.7,32.7,29.21,WNW,294,3.8,4.0,36,0.00,,SKC,0.00,VWS V14.00,2013-11-03 18:06:00,
2013-11-03 13:11:00,59.7,33.4,29.21,NW,308,0.0,0.0,37,0.00,,SKC,0.00,VWS V14.00,2013-11-03 18:11:00,
2013-11-03 13:16:00,59.7,32.0,29.21,NNW,335,3.8,5.4,35,0.00,,SKC,0.00,VWS V14.00,2013-11-03 18:16:00,
2013-11-03 13:21:00,59.7,32.0,29.21,ENE,66,0.0,6.3,35,0.00,,SKC,0.00,VWS V14.00,2013-11-03 18:21:00,
2013-11-03 13:26:00,59.7,32.0,29.21,North,353,5.9,7.2,35,0.00,,SKC,0.00,VWS V14.00,2013-11-03 18:26:00,
2013-11-03 13:31:00,59.9,32.2,29.21,NNE,19,3.2,6.3,35,0.00,,SKC,0.00,VWS V14.00,2013-11-03 18:31:00,
2013-11-03 13:36:00,60.1,32.4,29.21,NNE,15,2.7,6.3,35,0.00,,SKC,0.00,VWS V14.00,2013-11-03 18:36:00,
2013-11-03 13:41:00,60.1,32.4,29.21,NNE,12,0.0,2.7,35,0.00,,SKC,0.00,VWS V14.00,2013-11-03 18:41:00,
2013-11-03 13:46:00,60.4,33.4,29.21,SSE,167,0.0,5.4,36,0.00,,SKC,0.00,VWS V14.00,2013-11-03 18:46:00,
2013-11-03 13:51:00,60.6,32.8,29.18,NNW,332,0.0,0.0,35,0.00,,SKC,0.00,VWS V14.00,2013-11-03 18:51:00,
2013-11-03 13:56:00,61.0,33.2,29.18,NW,319,0.0,3.6,35,0.00,,SKC,0.00,VWS V14.00,2013-11-03 18:56:00,
2013-11-03 14:01:00,61.0,33.2,29.18,NNW,342,3.2,3.2,35,0.00,,SKC,0.00,VWS V14.00,2013-11-03 19:01:00,
2013-11-03 14:06:00,61.0,32.4,29.21,NNE,28,4.3,6.3,34,0.00,,SKC,0.00,VWS V14.00,2013-11-03 19:06:00,
2013-11-03 14:11:00,60.8,33.0,29.21,NNE,12,0.0,0.0,35,0.00,,SKC,0.00,VWS V14.00,2013-11-03 19:11:00,
2013-11-03 14:16:00,61.0,33.2,29.21,NW,320,3.8,5.4,35,0.00,,SKC,0.00,VWS V14.00,2013-11-03 19:16:00,
2013-11-03 14:21:00,60.8,32.3,29.18,NNE,32,0.0,0.0,34,0.00,,SKC,0.00,VWS V14.00,2013-11-03 19:21:00,
2013-11-03 14:26:00,60.6,32.1,29.18,NNW,332,0.0,4.9,34,0.00,,SKC,0.00,VWS V14.00,2013-11-03 19:26:00,
2013-11-03 14:31:00,60.4,32.0,29.18,North,3,2.7,3.1,34,0.00,,SKC,0.00,VWS V14.00,2013-11-03 19:31:00,
2013-11-03 14:36:00,60.4,32.7,29.18,NNE,30,0.0,3.1,35,0.00,,SKC,0.00,VWS V14.00,2013-11-03 19:36:00,
2013-11-03 14:41:00,60.4,32.0,29.18,North,8,0.0,3.1,34,0.00,,SKC,0.00,VWS V14.00,2013-11-03 19:41:00,
2013-11-03 14:46:00,60.3,31.8,29.18,NNE,31,0.0,4.9,34,0.00,,SKC,0.00,VWS V14.00,2013-11-03 19:46:00,
2013-11-03 14:51:00,60.1,31.6,29.18,ENE,73,0.0,0.0,34,0.00,,SKC,0.00,VWS V14.00,2013-11-03 19:51:00,
2013-11-03 14:56:00,59.9,32.2,29.18,NW,320,2.7,4.0,35,0.00,,SKC,0.00,VWS V14.00,2013-11-03 19:56:00,
2013-11-03 15:01:00,59.7,32.0,29.18,NNE,29,2.7,3.6,35,0.00,,SKC,0.00,VWS V14.00,2013-11-03 20:01:00,
2013-11-03 15:10:00,59.5,31.9,29.18,NE,54,4.8,4.8,35,0.00,,SKC,0.00,VWS V14.00,2013-11-03 20:10:00,
2013-11-03 15:16:00,59.4,31.7,29.18,NE,38,4.8,4.8,35,0.00,,SKC,0.00,VWS V14.00,2013-11-03 20:16:00,
2013-11-03 15:21:00,59.2,30.9,29.18,NNE,33,0.0,3.6,34,0.00,,SKC,0.00,VWS V14.00,2013-11-03 20:21:00,
2013-11-03 15:26:00,59.0,30.7,29.18,North,8,3.2,6.3,34,0.00,,SKC,0.00,VWS V14.00,2013-11-03 20:26:00,
2013-11-03 15:31:00,58.8,31.2,29.18,NNE,33,7.0,7.2,35,0.00,,SKC,0.00,VWS V14.00,2013-11-03 20:31:00,
2013-11-03 15:36:00,58.6,31.1,29.18,NNW,343,0.0,7.2,35,0.00,,SKC,0.00,VWS V14.00,2013-11-03 20:36:00,
2013-11-03 15:41:00,58.5,30.9,29.18,NNE,29,3.8,7.2,35,0.00,,SKC,0.00,VWS V14.00,2013-11-03 20:41:00,
2013-11-03 15:46:00,58.5,30.9,29.18,West,280,0.0,7.2,35,0.00,,SKC,0.00,VWS V14.00,2013-11-03 20:46:00,
2013-11-03 15:51:00,58.3,30.8,29.18,NE,54,0.0,7.2,35,0.00,,SKC,0.00,VWS V14.00,2013-11-03 20:51:00,
2013-11-03 15:56:00,58.1,30.6,29.18,NNE,18,3.2,7.2,35,0.00,,SKC,0.00,VWS V14.00,2013-11-03 20:56:00,
2013-11-03 16:01:00,58.1,30.6,29.18,NNE,21,0.0,7.2,35,0.00,,SKC,0.00,VWS V14.00,2013-11-03 21:01:00,
2013-11-03 16:06:00,57.9,30.5,29.18,NNE,23,4.3,7.2,35,0.00,,SKC,0.00,VWS V14.00,2013-11-03 21:06:00,
2013-11-03 16:11:00,57.7,30.3,29.18,NNE,17,3.2,7.2,35,0.00,,SKC,0.00,VWS V14.00,2013-11-03 21:11:00,
2013-11-03 16:16:00,57.6,30.1,29.18,NNE,14,3.2,7.2,35,0.00,,SKC,0.00,VWS V14.00,2013-11-03 21:16:00,
2013-11-03 16:21:00,57.4,30.0,29.18,NE,48,3.8,7.2,35,0.00,,SKC,0.00,VWS V14.00,2013-11-03 21:21:00,
2013-11-03 16:26:00,57.2,29.8,29.18,SSE,166,0.0,7.2,35,0.00,,SKC,0.00,VWS V14.00,2013-11-03 21:26:00,
2013-11-03 16:32:00,57.0,30.4,29.18,North,6,0.0,7.2,36,0.00,,SKC,0.00,VWS V14.00,2013-11-03 21:32:00,
2013-11-03 16:37:00,56.8,30.2,29.18,NE,54,3.2,7.2,36,0.00,,SKC,0.00,VWS V14.00,2013-11-03 21:37:00,
2013-11-03 16:42:00,56.8,29.5,29.18,NNW,345,0.0,6.3,35,0.00,,SKC,0.00,VWS V14.00,2013-11-03 21:42:00,
2013-11-03 16:47:00,56.7,29.3,29.18,NNE,15,0.0,6.3,35,0.00,,SKC,0.00,VWS V14.00,2013-11-03 21:47:00,
2013-11-03 16:52:00,56.7,30.0,29.18,NNE,29,0.0,0.0,36,0.00,,SKC,0.00,VWS V14.00,2013-11-03 21:52:00,
2013-11-03 16:57:00,56.3,29.7,29.18,NNE,21,2.7,5.8,36,0.00,,SKC,0.00,VWS V14.00,2013-11-03 21:57:00,
2013-11-03 17:02:00,56.3,29.7,29.18,NNE,12,3.8,3.8,36,0.00,,SKC,0.00,VWS V14.00,2013-11-03 22:02:00,
2013-11-03 17:07:00,56.1,29.5,29.18,NNE,31,0.0,3.6,36,0.00,,SKC,0.00,VWS V14.00,2013-11-03 22:07:00,
2013-11-03 17:12:00,55.9,29.4,29.18,NE,36,0.0,0.0,36,0.00,,SKC,0.00,VWS V14.00,2013-11-03 22:12:00,
2013-11-03 17:17:00,55.6,29.1,29.21,NE,39,0.0,2.7,36,0.00,,SKC,0.00,VWS V14.00,2013-11-03 22:17:00,
2013-11-03 17:22:00,55.4,28.9,29.21,NNW,346,0.0,0.0,36,0.00,,SKC,0.00,VWS V14.00,2013-11-03 22:22:00,
2013-11-03 17:27:00,55.2,29.4,29.21,NNW,337,0.0,3.1,37,0.00,,SKC,0.00,VWS V14.00,2013-11-03 22:27:00,
2013-11-03 17:32:00,55.0,29.3,29.21,NNE,16,0.0,0.0,37,0.00,,SKC,0.00,VWS V14.00,2013-11-03 22:32:00,
2013-11-03 17:37:00,54.7,28.9,29.21,NE,50,4.8,4.8,37,0.00,,SKC,0.00,VWS V14.00,2013-11-03 22:37:00,
2013-11-03 17:42:00,54.5,29.4,29.21,North,10,0.0,0.0,38,0.00,,SKC,0.00,VWS V14.00,2013-11-03 22:42:00,
2013-11-03 17:47:00,54.3,29.3,29.21,NNE,16,0.0,4.9,38,0.00,,SKC,0.00,VWS V14.00,2013-11-03 22:47:00,
2013-11-03 17:52:00,54.0,29.0,29.21,NNE,18,0.0,0.0,38,0.00,,SKC,0.00,VWS V14.00,2013-11-03 22:52:00,
2013-11-03 17:57:00,53.4,29.1,29.21,NNE,27,4.3,5.4,39,0.00,,SKC,0.00,VWS V14.00,2013-11-03 22:57:00,
2013-11-03 18:02:00,53.1,28.8,29.21,NE,40,0.0,0.0,39,0.00,,SKC,0.00,VWS V14.00,2013-11-03 23:02:00,
2013-11-03 18:07:00,52.9,29.2,29.21,NNE,16,0.0,0.0,40,0.00,,SKC,0.00,VWS V14.00,2013-11-03 23:07:00,
2013-11-03 18:12:00,52.7,29.1,29.21,NNE,22,0.0,0.0,40,0.00,,SKC,0.00,VWS V14.00,2013-11-03 23:12:00,
2013-11-03 18:17:00,52.5,28.9,29.21,NNE,30,0.0,3.6,40,0.00,,SKC,0.00,VWS V14.00,2013-11-03 23:17:00,
2013-11-03 18:22:00,52.3,28.8,29.21,NNE,27,0.0,2.2,40,0.00,,SKC,0.00,VWS V14.00,2013-11-03 23:22:00,
2013-11-03 18:27:00,52.0,28.4,29.21,NNE,27,0.0,2.7,40,0.00,,SKC,0.00,VWS V14.00,2013-11-03 23:27:00,
2013-11-03 18:32:00,51.8,28.3,29.21,NE,44,3.8,3.8,40,0.00,,SKC,0.00,VWS V14.00,2013-11-03 23:32:00,
2013-11-03 18:37:00,51.6,28.7,29.21,NE,44,0.0,3.6,41,0.00,,SKC,0.00,VWS V14.00,2013-11-03 23:37:00,
2013-11-03 18:42:00,51.3,29.0,29.21,NE,44,0.0,0.0,42,0.00,,SKC,0.00,VWS V14.00,2013-11-03 23:42:00,
2013-11-03 18:47:00,50.7,28.5,29.21,NE,44,0.0,0.0,42,0.00,,SKC,0.00,VWS V14.00,2013-11-03 23:47:00,
2013-11-03 18:52:00,50.5,28.9,29.21,NE,39,0.0,0.0,43,0.00,,SKC,0.00,VWS V14.00,2013-11-03 23:52:00,
2013-11-03 18:57:00,50.4,28.7,29.21,NE,39,0.0,0.0,43,0.00,,SKC,0.00,VWS V14.00,2013-11-03 23:57:00,
2013-11-03 19:02:00,50.2,28.6,29.21,NE,39,0.0,0.0,43,0.00,,SKC,0.00,VWS V14.00,2013-11-04 00:02:00,
2013-11-03 19:07:00,50.0,29.0,29.21,NE,39,0.0,0.0,44,0.00,,SKC,0.00,VWS V14.00,2013-11-04 00:07:00,
2013-11-03 19:12:00,49.6,28.6,29.21,NE,39,0.0,0.0,44,0.00,,SKC,0.00,VWS V14.00,2013-11-04 00:12:00,
2013-11-03 19:17:00,49.3,28.9,29.23,NE,39,0.0,0.0,45,0.00,,SKC,0.00,VWS V14.00,2013-11-04 00:17:00,
2013-11-03 19:22:00,48.9,28.5,29.23,NE,39,0.0,0.0,45,0.00,,SKC,0.00,VWS V14.00,2013-11-04 00:22:00,
2013-11-03 19:27:00,48.7,28.9,29.23,NE,39,0.0,0.0,46,0.00,,SKC,0.00,VWS V14.00,2013-11-04 00:27:00,
2013-11-03 19:32:00,48.6,29.3,29.23,NE,39,0.0,0.0,47,0.00,,SKC,0.00,VWS V14.00,2013-11-04 00:32:00,
2013-11-03 19:37:00,48.2,28.9,29.23,NE,39,0.0,0.0,47,0.00,,SKC,0.00,VWS V14.00,2013-11-04 00:37:00,
2013-11-03 19:42:00,47.7,29.0,29.23,NE,39,0.0,0.0,48,0.00,,SKC,0.00,VWS V14.00,2013-11-04 00:42:00,
2013-11-03 19:47:00,47.5,29.3,29.21,NE,34,0.0,3.1,49,0.00,,SKC,0.00,VWS V14.00,2013-11-04 00:47:00,
2013-11-03 19:52:00,47.5,29.3,29.21,NE,34,0.0,0.0,49,0.00,,SKC,0.00,VWS V14.00,2013-11-04 00:52:00,
2013-11-03 19:57:00,47.5,29.3,29.21,NE,34,0.0,0.0,49,0.00,,SKC,0.00,VWS V14.00,2013-11-04 00:57:00,
2013-11-03 20:02:00,47.3,29.1,29.21,NE,34,0.0,0.0,49,0.00,,SKC,0.00,VWS V14.00,2013-11-04 01:02:00,
2013-11-03 20:07:00,47.1,29.5,29.21,NE,34,0.0,0.0,50,0.00,,SKC,0.00,VWS V14.00,2013-11-04 01:07:00,
2013-11-03 20:12:00,47.1,29.5,29.21,NE,35,0.0,0.0,50,0.00,,SKC,0.00,VWS V14.00,2013-11-04 01:12:00,
2013-11-03 20:17:00,47.1,29.5,29.21,NNE,23,0.0,0.0,50,0.00,,SKC,0.00,VWS V14.00,2013-11-04 01:17:00,
2013-11-03 20:22:00,47.1,29.5,29.21,NNE,12,0.0,2.7,50,0.00,,SKC,0.00,VWS V14.00,2013-11-04 01:22:00,
2013-11-03 20:27:00,47.3,29.6,29.21,NE,54,0.0,2.7,50,0.00,,SKC,0.00,VWS V14.00,2013-11-04 01:27:00,
2013-11-03 20:32:00,47.3,29.6,29.21,NE,40,0.0,0.0,50,0.00,,SKC,0.00,VWS V14.00,2013-11-04 01:32:00,
2013-11-03 20:37:00,47.1,29.5,29.21,NNE,28,2.7,3.6,50,0.00,,SKC,0.00,VWS V14.00,2013-11-04 01:37:00,
2013-11-03 20:42:00,47.1,29.5,29.21,NNE,29,0.0,0.0,50,0.00,,SKC,0.00,VWS V14.00,2013-11-04 01:42:00,
2013-11-03 20:47:00,46.9,29.3,29.21,NNE,29,0.0,0.0,50,0.00,,SKC,0.00,VWS V14.00,2013-11-04 01:47:00,
2013-11-03 20:52:00,46.8,29.1,29.21,NNE,31,0.0,0.0,50,0.00,,SKC,0.00,VWS V14.00,2013-11-04 01:52:00,
2013-11-03 20:57:00,46.6,29.0,29.21,NNE,31,0.0,0.0,50,0.00,,SKC,0.00,VWS V14.00,2013-11-04 01:57:00,
2013-11-03 21:02:00,46.6,29.0,29.21,NNE,31,0.0,0.0,50,0.00,,SKC,0.00,VWS V14.00,2013-11-04 02:02:00,
2013-11-03 21:07:00,46.2,29.1,29.21,NNE,31,0.0,0.0,51,0.00,,SKC,0.00,VWS V14.00,2013-11-04 02:07:00,
2013-11-03 21:12:00,45.9,28.8,29.21,NNE,31,0.0,0.0,51,0.00,,SKC,0.00,VWS V14.00,2013-11-04 02:12:00,
2013-11-03 21:17:00,45.7,28.6,29.21,NNE,31,0.0,0.0,51,0.00,,SKC,0.00,VWS V14.00,2013-11-04 02:17:00,
2013-11-03 21:22:00,45.7,28.6,29.21,NNE,31,0.0,0.0,51,0.00,,SKC,0.00,VWS V14.00,2013-11-04 02:22:00,
2013-11-03 21:27:00,45.3,28.8,29.21,NNE,31,0.0,0.0,52,0.00,,SKC,0.00,VWS V14.00,2013-11-04 02:27:00,
2013-11-03 21:32:00,45.1,28.6,29.21,NNE,31,0.0,0.0,52,0.00,,SKC,0.00,VWS V14.00,2013-11-04 02:32:00,
2013-11-03 21:37:00,44.8,28.2,29.21,NNE,31,0.0,0.0,52,0.00,,SKC,0.00,VWS V14.00,2013-11-04 02:37:00,
2013-11-03 21:42:00,44.8,28.7,29.21,NNE,31,0.0,0.0,53,0.00,,SKC,0.00,VWS V14.00,2013-11-04 02:42:00,
2013-11-03 21:47:00,44.6,28.5,29.21,NNE,31,0.0,0.0,53,0.00,,SKC,0.00,VWS V14.00,2013-11-04 02:47:00,
2013-11-03 21:52:00,44.8,28.7,29.21,NNE,31,0.0,0.0,53,0.00,,SKC,0.00,VWS V14.00,2013-11-04 02:52:00,
2013-11-03 21:57:00,44.8,28.7,29.21,NNE,31,0.0,0.0,53,0.00,,SKC,0.00,VWS V14.00,2013-11-04 02:57:00,
2013-11-03 22:02:00,44.6,28.5,29.23,NNE,31,0.0,0.0,53,0.00,,SKC,0.00,VWS V14.00,2013-11-04 03:02:00,
2013-11-03 22:07:00,44.4,28.8,29.23,NNE,31,0.0,0.0,54,0.00,,SKC,0.00,VWS V14.00,2013-11-04 03:07:00,
2013-11-03 22:12:00,44.2,28.7,29.23,NNE,31,0.0,0.0,54,0.00,,SKC,0.00,VWS V14.00,2013-11-04 03:12:00,
2013-11-03 22:17:00,44.2,29.1,29.23,NNE,31,0.0,0.0,55,0.00,,SKC,0.00,VWS V14.00,2013-11-04 03:17:00,
2013-11-03 22:22:00,44.1,28.9,29.23,NNE,32,0.0,0.0,55,0.00,,SKC,0.00,VWS V14.00,2013-11-04 03:22:00,
2013-11-03 22:27:00,43.5,28.4,29.23,NNE,31,0.0,0.0,55,0.00,,SKC,0.00,VWS V14.00,2013-11-04 03:27:00,
2013-11-03 22:32:00,43.3,28.7,29.26,NNE,31,0.0,0.0,56,0.00,,SKC,0.00,VWS V14.00,2013-11-04 03:32:00,
2013-11-03 22:38:00,43.2,28.5,29.26,NNE,31,0.0,0.0,56,0.00,,SKC,0.00,VWS V14.00,2013-11-04 03:38:00,
2013-11-03 22:43:00,43.2,29.0,29.26,NNE,31,0.0,0.0,57,0.00,,SKC,0.00,VWS V14.00,2013-11-04 03:43:00,
2013-11-03 22:48:00,43.0,28.8,29.26,NNE,31,0.0,0.0,57,0.00,,SKC,0.00,VWS V14.00,2013-11-04 03:48:00,
2013-11-03 22:53:00,42.8,28.6,29.26,NNE,31,0.0,0.0,57,0.00,,SKC,0.00,VWS V14.00,2013-11-04 03:53:00,
2013-11-03 22:58:00,42.6,28.9,29.26,NNE,31,0.0,0.0,58,0.00,,SKC,0.00,VWS V14.00,2013-11-04 03:58:00,
2013-11-03 23:03:00,42.6,29.3,29.26,NNE,31,0.0,0.0,59,0.00,,SKC,0.00,VWS V14.00,2013-11-04 04:03:00,
2013-11-03 23:08:00,42.8,29.1,29.26,NNE,31,0.0,0.0,58,0.00,,SKC,0.00,VWS V14.00,2013-11-04 04:08:00,
2013-11-03 23:13:00,42.6,29.3,29.26,NNE,31,0.0,0.0,59,0.00,,SKC,0.00,VWS V14.00,2013-11-04 04:13:00,
2013-11-03 23:18:00,42.6,29.3,29.26,NNE,32,0.0,0.0,59,0.00,,SKC,0.00,VWS V14.00,2013-11-04 04:18:00,
2013-11-03 23:23:00,42.4,29.1,29.26,NNE,31,0.0,0.0,59,0.00,,SKC,0.00,VWS V14.00,2013-11-04 04:23:00,
2013-11-03 23:28:00,42.1,29.2,29.26,NNE,31,0.0,0.0,60,0.00,,SKC,0.00,VWS V14.00,2013-11-04 04:28:00,
2013-11-03 23:33:00,41.7,28.9,29.26,NNE,31,0.0,0.0,60,0.00,,SKC,0.00,VWS V14.00,2013-11-04 04:33:00,
2013-11-03 23:38:00,41.7,29.3,29.26,NNE,31,0.0,0.0,61,0.00,,SKC,0.00,VWS V14.00,2013-11-04 04:38:00,
2013-11-03 23:43:00,41.5,29.1,29.26,NNE,31,0.0,0.0,61,0.00,,SKC,0.00,VWS V14.00,2013-11-04 04:43:00,
2013-11-03 23:48:00,41.4,28.9,29.26,NNE,31,0.0,0.0,61,0.00,,SKC,0.00,VWS V14.00,2013-11-04 04:48:00,
2013-11-03 23:53:00,40.8,28.8,29.26,NNE,31,0.0,0.0,62,0.00,,SKC,0.00,VWS V14.00,2013-11-04 04:53:00,
2013-11-03 23:58:00,40.6,29.0,29.26,NNE,31,0.0,0.0,63,0.00,,SKC,0.00,VWS V14.00,2013-11-04 04:58:00,